OBJECT AL, 57200

Orbit data source: Space-Track

You're viewing an Uncataloged Satellite

Recently launched and/or uncataloged satellites may have evolving metadata. Metadata may include but not limited to: Owner, Maufacturer, Bus, Motor, and Mission.

OBJECT AL, 57200 is a satellite in SSO that was launched on Tue, 27 Jun 2023 UTC via a SOYUZ-2-1B launch vehicle from the Vostochny Cosmodrome (VOSTO). Unknown objects in Earth's orbit typically refer to objects detected orbiting the Earth but have not yet been identified or cataloged. These objects could be anything from previously untracked satellites, spent rocket stages, debris from satellite collisions, or even natural meteoroids temporarily captured by Earth's gravity.

Loading next visibility...
Identifier
57200, 2023-091AL
Orbit
SSO
Country
Flag of TBDTBD
Related business
None
Manufacturer
Unknown
Mission
Operational Civil Technology
Bus & Motor
Unknown
Mass
Unknown
Launch date (UTC)
2023-06-27 (3 years ago)
Launch vehicle
SOYUZ-2-1B
Launch site
Vostochny Cosmodrome (VOSTO)
Object type
Unknown
Shape & HBR
Box, 0.1 m
Radar Cross Section
0.080 m², Medium (>0.1 m² and < 1m²)

Expand to show TLE details & history
Last TLE update: 5 hours ago

TLE from 5 hours ago
0 OBJECT AL
1 57200U 23091AL  26193.14893270  .00018297  00000-0  36325-3 0  9993
2 57200  97.5045 268.3835 0004054 324.8936  35.2046 15.47048253168867
Epoch: 2026-07-12T03:34Z
TLE epoch observation values (Epoch: 2026-07-12T03:34:27.785Z)
Latitude
0.00001°
Longitude
-75.28422°
Altitude
426.237 km
Speed
7.657 km/s
True Right ascension
17h 53m 32s
True Declination
0° 00' 00"
Sunlit
Object was in full shadow at epoch
Visualization orbit readout
Latitude
Unknown
Longitude
Unknown
Altitude
Unknown
Speed
Unknown
Apparent Right ascension
Unknown
Apparent Declination
Unknown
Sunlit
N/A
Visualization observer readout
Local Sidereal Time
20:54:08
Azimuth
Unknown
Elevation
Unknown
Doppler factor
Unknown
Orbital elements
Apogee altitude
425.057 km
Perigee altitude
419.544 km
Semi-major axis
6,800.437 km
Eccentricity
0.00041
Inclination
97.5045°
RAAN
268.3835°
Arg. of periapsis
324.8936°
True anomaly
35.23139°
Mean anomaly
35.2046°
Eccentric anomaly
35.218°
Mean motion
3.87024 °/min
Orbital period
93.02 mins
BSTAR
0.00036325
Loading maneuver chart data...
Computing Atmospheric mass density...
Loading historical data...
Loading historical data...
Loading historical data...
Loading historical data...
Loading historical data...
Loading historical data...
Loading historical data...

Documentation

Showing up to 5 results
|